Change the Weather History Date:

Monday, September 2, 2013

  Actual Average (KRIL) Record (KRIL)
Temperature  
Mean Temperature 60 °F 66 °F  
Max Temperature 69 °F 84 °F 97 °F (1931)
Min Temperature 51 °F 49 °F 28 °F (1959)
Degree Days  
Heating Degree Days 5 1  
Month to date heating degree days 2  
Since 1 July heating degree days 9  
Cooling Degree Days 0 2  
Month to date cooling degree days 4  
Year to date cooling degree days 520  
Growing Degree Days 10 (Base 50)    
Moisture  
Dew Point 45 °F    
Average Humidity 63    
Maximum Humidity 94    
Minimum Humidity 43    
Precipitation  
Precipitation 0.00 in 0.04 in 0.29 in (1961)
Month to date precipitation 0.09  
Year to date precipitation 9.06  
Sea Level Pressure  
Sea Level Pressure 30.60 in    
Wind  
Wind Speed 1 mph (SW)    
Max Wind Speed 5 mph    
Max Gust Speed -    
Visibility 10 miles    
Events Rain , Thunderstorm    
T = Trace of Precipitation, MM = Missing Value Source: NWS Daily Summary

Daily Weather History Graph

Daily Weather History Graph

Search for Another Location

Airport or City:

Trip Planner

Search our weather history database for the weather conditions in past years. The results will help you decide how hot, cold, wet, or windy it might be!

Date:

Astronomy

Sep. 02, 2013 Rise Set
Actual Time 6:39 AM MDT 7:38 PM MDT
Civil Twilight 6:11 AM MDT 8:05 PM MDT
Nautical Twilight 5:38 AM MDT 8:38 PM MDT
Astronomical Twilight 5:04 AM MDT 9:12 PM MDT
Moon 3:59 AM MDT (9/2) 5:53 PM MDT (9/2)
Length of Visible Light 13h 54m
Length of Day
12h 59m
Waning Crescent, 7% of the Moon is Illuminated
Sep 2
Waning Crescent
Sep 5
New
Sep 12
First Quarter
Sep 19
Full
Sep 26
Last Quarter

Hourly Weather History & Observations

Time (MDT) Temp. Dew Point Humidity Pressure Visibility Wind Dir Wind Speed Gust Speed Precip Events Conditions
12:17 AM 55.4 °F 44.6 °F 67% 30.59 in 10.0 mi Calm Calm - N/A   Scattered Clouds
12:37 AM 53.6 °F 42.8 °F 67% 30.59 in 10.0 mi Calm Calm - N/A   Clear
12:57 AM 53.6 °F 42.8 °F 67% 30.59 in 10.0 mi SSE 3.5 mph - N/A   Clear
1:17 AM 55.4 °F 44.6 °F 67% 30.59 in 10.0 mi Calm Calm - N/A   Clear
1:36 AM 55.4 °F 44.6 °F 67% 30.59 in 10.0 mi Calm Calm - N/A   Clear
1:57 AM 55.4 °F 42.8 °F 63% 30.59 in 10.0 mi Calm Calm - N/A   Clear
2:17 AM 55.4 °F 42.8 °F 63% 30.59 in 10.0 mi Calm Calm - N/A   Clear
2:37 AM 55.4 °F 42.8 °F 63% 30.59 in 10.0 mi SSE 3.5 mph - N/A   Clear
2:57 AM 55.4 °F 42.8 °F 63% 30.59 in 10.0 mi SSE 3.5 mph - N/A   Scattered Clouds
3:16 AM 55.4 °F 41.0 °F 58% 30.59 in 10.0 mi Calm Calm - N/A   Scattered Clouds
3:37 AM 55.4 °F 41.0 °F 58% 30.59 in 10.0 mi Calm Calm - N/A   Scattered Clouds
3:57 AM 55.4 °F 41.0 °F 58% 30.59 in 10.0 mi Calm Calm - N/A   Scattered Clouds
4:17 AM 55.4 °F 41.0 °F 58% 30.59 in 10.0 mi Calm Calm - N/A   Scattered Clouds
4:36 AM 53.6 °F 41.0 °F 62% 30.59 in 10.0 mi Calm Calm - N/A   Scattered Clouds
4:57 AM 53.6 °F 42.8 °F 67% 30.58 in 10.0 mi Calm Calm - N/A   Clear
5:17 AM 53.6 °F 42.8 °F 67% 30.58 in 10.0 mi Calm Calm - N/A Thunderstorm Clear
5:37 AM 53.6 °F 42.8 °F 67% 30.58 in 10.0 mi Calm Calm - N/A   Clear
5:56 AM 51.8 °F 42.8 °F 71% 30.58 in 10.0 mi Calm Calm - N/A   Clear
6:16 AM 51.8 °F 42.8 °F 71% 30.59 in 10.0 mi Calm Calm - N/A   Clear
6:36 AM 51.8 °F 42.8 °F 71% 30.59 in 10.0 mi Calm Calm - N/A   Clear
6:56 AM 53.6 °F 41.0 °F 62% 30.59 in 10.0 mi SW 3.5 mph - N/A   Clear
7:17 AM 53.6 °F 41.0 °F 62% 30.60 in 10.0 mi Calm Calm - N/A   Clear
7:37 AM 53.6 °F 42.8 °F 67% 30.61 in 10.0 mi Calm Calm - N/A   Clear
7:57 AM 53.6 °F 42.8 °F 67% 30.61 in 10.0 mi Calm Calm - N/A   Scattered Clouds
8:17 AM 53.6 °F 42.8 °F 67% 30.62 in 10.0 mi Calm Calm - N/A   Scattered Clouds
8:37 AM 55.4 °F 42.8 °F 63% 30.62 in 10.0 mi Calm Calm - N/A   Clear
8:57 AM 55.4 °F 44.6 °F 67% 30.62 in 10.0 mi Calm Calm - N/A   Clear
9:16 AM 55.4 °F 44.6 °F 67% 30.62 in 10.0 mi Calm Calm - N/A   Clear
9:36 AM 59.0 °F 44.6 °F 59% 30.63 in 10.0 mi Calm Calm - N/A   Clear
9:57 AM 59.0 °F 46.4 °F 63% 30.63 in 10.0 mi Calm Calm - N/A Thunderstorm Clear
10:17 AM 60.8 °F 46.4 °F 59% 30.64 in 10.0 mi Calm Calm - N/A   Clear
10:37 AM 62.6 °F 46.4 °F 55% 30.64 in 10.0 mi Calm Calm - N/A   Clear
10:57 AM 64.4 °F 46.4 °F 52% 30.64 in 10.0 mi Calm Calm - N/A   Clear
11:16 AM 64.4 °F 44.6 °F 49% 30.64 in 10.0 mi Calm Calm - N/A   Scattered Clouds
11:37 AM 66.2 °F 46.4 °F 49% 30.64 in 10.0 mi WSW 3.5 mph - N/A   Mostly Cloudy
11:57 AM 68.0 °F 46.4 °F 46% 30.64 in 10.0 mi Calm Calm - N/A   Mostly Cloudy
12:17 PM 64.4 °F 44.6 °F 49% 30.63 in 10.0 mi Calm Calm - N/A   Mostly Cloudy
12:37 PM 68.0 °F 46.4 °F 46% 30.63 in 10.0 mi Calm Calm - N/A   Mostly Cloudy
12:57 PM 69.8 °F 46.4 °F 43% 30.63 in 10.0 mi Calm Calm - N/A   Mostly Cloudy
1:16 PM 64.4 °F 46.4 °F 52% 30.62 in 10.0 mi NNW 3.5 mph - N/A   Mostly Cloudy
1:37 PM 62.6 °F 46.4 °F 55% 30.62 in 10.0 mi Calm Calm - N/A   Mostly Cloudy
1:57 PM 59.0 °F 50.0 °F 72% 30.61 in 10.0 mi Calm Calm - N/A   Light Drizzle
2:17 PM 60.8 °F 50.0 °F 68% 30.60 in 10.0 mi Calm Calm - N/A Rain , Thunderstorm Light Thunderstorms and Rain
2:37 PM 57.2 °F 50.0 °F 77% 30.59 in 10.0 mi Calm Calm - N/A Rain Light Rain
2:57 PM 57.2 °F 51.8 °F 82% 30.60 in 10.0 mi Calm Calm - N/A   Overcast
3:17 PM 59.0 °F 53.6 °F 82% 30.59 in 10.0 mi SW 4.6 mph - N/A Rain , Thunderstorm Thunderstorms and Rain
3:37 PM 53.6 °F 51.8 °F 94% 30.59 in 7.0 mi Calm Calm - N/A Rain Light Rain
3:57 PM 55.4 °F 51.8 °F 88% 30.58 in 10.0 mi Calm Calm - N/A   Scattered Clouds
4:17 PM 57.2 °F 51.8 °F 82% 30.58 in 10.0 mi Calm Calm - N/A   Mostly Cloudy
4:37 PM 53.6 °F 48.2 °F 82% 30.58 in 10.0 mi SW 3.5 mph - N/A Rain Light Rain
4:57 PM 59.0 °F 51.8 °F 77% 30.57 in 10.0 mi Calm Calm - N/A   Overcast
5:17 PM 64.4 °F 46.4 °F 52% 30.57 in 10.0 mi West 3.5 mph - N/A Thunderstorm Mostly Cloudy
5:36 PM 64.4 °F 46.4 °F 52% 30.57 in 10.0 mi West 3.5 mph - N/A   Scattered Clouds
5:56 PM 66.2 °F 46.4 °F 49% 30.57 in 10.0 mi Calm Calm - N/A   Clear
6:16 PM 66.2 °F 46.4 °F 49% 30.57 in 10.0 mi Calm Calm - N/A   Clear
6:36 PM 64.4 °F 44.6 °F 49% 30.57 in 10.0 mi Calm Calm - N/A   Clear
6:57 PM 64.4 °F 44.6 °F 49% 30.57 in 10.0 mi Calm Calm - N/A   Clear
7:17 PM 62.6 °F 44.6 °F 52% 30.57 in 10.0 mi Calm Calm - N/A   Clear
7:37 PM 62.6 °F 44.6 °F 52% 30.57 in 10.0 mi WSW 3.5 mph - N/A   Clear
7:57 PM 60.8 °F 44.6 °F 55% 30.57 in 10.0 mi West 3.5 mph - N/A   Clear
8:16 PM 60.8 °F 44.6 °F 55% 30.57 in 10.0 mi West 4.6 mph - N/A   Clear
8:37 PM 60.8 °F 44.6 °F 55% 30.57 in 10.0 mi Calm Calm - N/A   Clear
8:57 PM 59.0 °F 44.6 °F 59% 30.57 in 10.0 mi Calm Calm - N/A   Clear
9:17 PM 57.2 °F 44.6 °F 63% 30.58 in 10.0 mi Calm Calm - N/A   Clear
9:37 PM 55.4 °F 44.6 °F 67% 30.58 in 10.0 mi Calm Calm - N/A   Clear
9:57 PM 55.4 °F 44.6 °F 67% 30.59 in 10.0 mi Calm Calm - N/A   Clear
10:17 PM 55.4 °F 44.6 °F 67% 30.59 in 10.0 mi Calm Calm - N/A   Clear
10:37 PM 55.4 °F 44.6 °F 67% 30.59 in 10.0 mi Calm Calm - N/A   Clear
10:57 PM 55.4 °F 44.6 °F 67% 30.59 in 10.0 mi Calm Calm - N/A   Clear
11:17 PM 55.4 °F 44.6 °F 67% 30.59 in 10.0 mi Calm Calm - N/A   Clear
11:37 PM 55.4 °F 46.4 °F 72% 30.59 in 10.0 mi Calm Calm - N/A   Clear
11:57 PM 55.4 °F 46.4 °F 72% 30.60 in 10.0 mi Calm Calm - N/A   Clear